Location: Northern Prairie Star Party
(53.2167°N, 112.5333°W)
Time: 01:02:46
(UTC-06:00)

Amateur Radio Satellites - All Passes

Search period start: 30 April 2017 00:32
Search period end: 01 May 2017 00:32
Location: Northern Prairie Star Party, 53.2167°N, 112.5333°W

Satellite Date Start Highest point End Downlink Frequencies (MHz)
Time Altitude Azimuth
NO-84 30 Apr 00:35:09 00:38:18 78° 201° (SSW) 00:41:15 435.350 FM
VELOX 1 30 Apr 00:38:32 00:42:59 77° 73° (ENE) 00:47:29 145.980
UKube-1 30 Apr 00:38:38 00:42:18 28° 61° (ENE) 00:46:00 .
ESTCUBE 1 30 Apr 00:42:01 00:46:12 37° 263° (W) 00:50:27 437.505/2401.250
NANOSAT C BR1 30 Apr 00:43:02 00:46:30 25° 93° (E) 00:49:58 145.865
PRISM 30 Apr 00:46:08 00:49:29 24° 300° (WNW) 00:52:49 437.425
UNISAT 6 30 Apr 00:50:15 00:54:04 31° 296° (WNW) 00:57:53 437.425
DUCHIFAT 1 30 Apr 01:10:30 01:14:28 39° 98° (E) 01:18:23 145.980
EO-79 30 Apr 01:12:54 01:17:00 49° 100° (E) 01:21:05 145.935-145.965
SPROUT 30 Apr 01:13:29 01:17:40 56° 259° (W) 01:21:54 437.525
DX 1 30 Apr 01:18:19 01:22:41 79° 74° (ENE) 01:27:07 434.975-435.025
BEESAT 30 Apr 01:22:09 01:23:54 12° 48° (NE) 01:25:40 436.000
AIST 2D 30 Apr 01:25:04 01:28:33 60° 288° (WNW) 01:32:02 435.315
50 SAT 30 Apr 01:40:45 01:44:02 38° 262° (W) 01:47:21 437.505
POLYITAN 1 30 Apr 01:53:19 01:57:31 69° 288° (WNW) 02:01:41 437.675
BUGSAT 1 30 Apr 01:57:21 02:01:10 40° 99° (E) 02:04:57 437.445
Oscar 19 30 Apr 01:58:34 02:02:22 20° 89° (E) 02:06:10 437.125/150
QB50P2 30 Apr 02:00:12 02:04:20 56° 290° (WNW) 02:08:28 145.880/145.840
ITUPSAT 1 30 Apr 02:02:55 02:06:34 22° 57° (ENE) 02:10:14 437.325
NO-84 30 Apr 02:13:15 02:15:22 18° 222° (SW) 02:17:24 435.350 FM
UKube-1 30 Apr 02:14:02 02:18:10 44° 261° (W) 02:22:22 .
FO-29 30 Apr 02:14:38 02:17:47 16° 310° (NW) 02:20:59 435.910
VELOX 1 30 Apr 02:17:11 02:19:59 16° 272° (W) 02:22:49 145.980
NANOSAT C BR1 30 Apr 02:18:25 02:22:25 44° 292° (WNW) 02:26:24 145.865
MOZHAYETS 4 30 Apr 02:18:29 02:21:16 16° 54° (NE) 02:24:03
Gurwin Techsat 1B 30 Apr 02:29:49 02:34:00 23° 90° (E) 02:38:09 435.225
PCSat 30 Apr 02:39:31 02:44:41 47° 119° (ESE) 02:49:54 145.827
DUCHIFAT 1 30 Apr 02:46:26 02:50:01 28° 297° (WNW) 02:53:37 145.980
EO-79 30 Apr 02:49:09 02:52:31 24° 299° (WNW) 02:55:53 145.935-145.965
BEESAT 30 Apr 02:56:05 03:00:44 56° 68° (ENE) 03:05:24 436.000
DX 1 30 Apr 02:56:50 02:59:27 15° 272° (W) 03:02:05 434.975-435.025
CUBESAT XI-V 30 Apr 03:20:05 03:22:28 14° 51° (NE) 03:24:52 437.345
POLYITAN 1 30 Apr 03:30:54 03:32:34 12° 308° (NW) 03:34:13 437.675
BUGSAT 1 30 Apr 03:33:01 03:36:24 26° 298° (WNW) 03:39:45 437.445
ITAMSAT 1 30 Apr 03:33:22 03:36:04 14° 85° (E) 03:38:45 435.822/435.867
Oscar 19 30 Apr 03:37:04 03:42:18 77° 289° (WNW) 03:47:29 437.125/150
QB50P2 30 Apr 03:38:47 03:39:16 10° 310° (NW) 03:39:45 145.880/145.840
YUBILEINY 30 Apr 03:38:58 03:45:58 28° 78° (ENE) 03:52:58 435.215
ITUPSAT 1 30 Apr 03:39:16 03:44:00 68° 257° (WSW) 03:48:46 437.325
KKS-1 30 Apr 03:39:23 03:42:31 19° 56° (ENE) 03:45:41 437.445
MOZHAYETS 4 30 Apr 03:53:13 03:57:47 86° 79° (ENE) 04:02:24
STARS 30 Apr 04:01:00 04:03:34 15° 53° (NE) 04:06:08 437.465
Gurwin Techsat 1B 30 Apr 04:09:09 04:14:28 69° 290° (WNW) 04:19:44 435.225
PCSat 30 Apr 04:22:57 04:28:11 46° 321° (NW) 04:33:26 145.827
BEESAT 30 Apr 04:34:59 04:38:50 24° 268° (W) 04:42:43 436.000
AO-7 30 Apr 04:40:03 04:47:54 43° 98° (E) 04:55:42 .
CUBESAT XI-V 30 Apr 04:54:24 04:59:02 70° 72° (ENE) 05:03:45 437.345
ITAMSAT 1 30 Apr 05:11:12 05:16:25 78° 105° (ESE) 05:21:36 435.822/435.867
KKS-1 30 Apr 05:14:09 05:18:37 75° 256° (WSW) 05:23:06 437.445
RS-15 30 Apr 05:16:06 05:18:01 10° 85° (E) 05:19:55 29.354- 29.394
Oscar 19 30 Apr 05:17:31 05:20:51 17° 309° (NW) 05:24:10 437.125/150
ITUPSAT 1 30 Apr 05:21:28 05:22:45 11° 276° (W) 05:24:03 437.325
M-CUBED/EXP-1 PRIME 30 Apr 05:23:45 05:24:36 10° 40° (NE) 05:25:27 437.505
STRAND 1 30 Apr 05:30:55 05:31:26 10° 43° (NE) 05:31:59 437.568
MOZHAYETS 4 30 Apr 05:33:03 05:35:37 15° 274° (W) 05:38:12
YUBILEINY 30 Apr 05:33:06 05:41:49 83° 282° (WNW) 05:50:37 435.215
STARS 30 Apr 05:34:52 05:39:17 85° 75° (ENE) 05:43:43 437.465
Gurwin Techsat 1B 30 Apr 05:50:23 05:53:33 16° 311° (NW) 05:56:44 435.225
SO-50 30 Apr 05:50:53 05:53:50 17° 114° (ESE) 05:56:47 436.795
PCSat 30 Apr 06:08:45 06:12:53 21° 345° (NNW) 06:17:02 145.827
AO-7 30 Apr 06:32:53 06:41:02 61° 300° (WNW) 06:49:10 .
CUBESAT XI-V 30 Apr 06:33:35 06:36:55 19° 272° (W) 06:40:17 437.345
DOVE 4 30 Apr 06:36:18 06:40:00 23° 90° (E) 06:43:32 437.250
CUTE-I 30 Apr 06:47:47 06:51:38 20° 89° (E) 06:55:28 437.470
ITAMSAT 1 30 Apr 06:51:26 06:55:23 22° 305° (NW) 06:59:19 435.822/435.867
M-CUBED/EXP-1 PRIME 30 Apr 06:53:37 06:58:00 41° 59° (ENE) 07:02:19 437.505
KKS-1 30 Apr 06:54:37 06:55:59 11° 275° (W) 06:57:22 437.445
STRAND 1 30 Apr 07:04:37 07:09:24 42° 64° (ENE) 07:14:12 437.568
XW-2D 30 Apr 07:05:17 07:08:32 26° 94° (E) 07:11:47 145.860 - 145.880
XW-2B 30 Apr 07:12:15 07:15:38 29° 95° (E) 07:19:01 145.730 - 145.750
KAITUO 1B 30 Apr 07:12:21 07:15:29 24° 93° (E) 07:18:38 145.475/437.950
STARS 30 Apr 07:13:50 07:16:15 14° 273° (W) 07:18:39 437.465
RS-15 30 Apr 07:15:40 07:26:45 44° 111° (ESE) 07:38:01 29.354- 29.394
HO-68 30 Apr 07:22:06 07:25:57 15° 81° (E) 07:29:46 435.675
XW-2C 30 Apr 07:24:14 07:27:50 38° 98° (E) 07:31:26 145.795 - 145.815
LilacSat-2 30 Apr 07:27:45 07:31:27 44° 98° (E) 07:35:09 437.200
SO-50 30 Apr 07:29:06 07:33:42 86° 137° (SE) 07:38:16 436.795
YUBILEINY 30 Apr 07:33:06 07:40:08 26° 307° (NW) 07:47:14 435.215
NUDT-PHONESAT 30 Apr 07:45:50 07:49:30 52° 100° (E) 07:53:09 437.300
XW-2F 30 Apr 07:46:35 07:50:23 64° 101° (ESE) 07:54:11 145.980 - 146.000
PCSat 30 Apr 07:54:10 07:58:12 20° 12° (NNE) 08:02:13 145.827
CUTE 1.7 + AOD 2 30 Apr 07:59:44 08:02:39 17° 89° (E) 08:05:33 437.475
ISS 30 Apr 08:04:11 08:05:54 14° 142° (SE) 08:07:37 437.550
SEEDS 30 Apr 08:12:11 08:14:49 16° 88° (E) 08:17:26 437.485
CUBEBUG 2 30 Apr 08:12:14 08:13:32 11° 85° (E) 08:14:50 437.445
DOVE 4 30 Apr 08:13:32 08:18:04 52° 291° (WNW) 08:22:19 437.250
XW-2A 30 Apr 08:25:58 08:28:48 24° 95° (E) 08:31:37 145.665 - 145.685
AO-7 30 Apr 08:26:19 08:32:22 23° 324° (NW) 08:38:25 .
CUTE-I 30 Apr 08:26:59 08:32:19 79° 289° (WNW) 08:37:38 437.470
M-CUBED/EXP-1 PRIME 30 Apr 08:28:09 08:32:26 35° 258° (WSW) 08:36:43 437.505
PRISM 30 Apr 08:32:34 08:34:40 14° 53° (NE) 08:36:45 437.425
XW-2D 30 Apr 08:39:18 08:42:49 36° 292° (WNW) 08:46:20 145.860 - 145.880
STRAND 1 30 Apr 08:44:01 08:48:41 36° 264° (W) 08:53:23 437.568
UNISAT 6 30 Apr 08:44:34 08:46:15 12° 52° (NE) 08:47:56 437.425
KAITUO 1B 30 Apr 08:46:07 08:49:38 37° 292° (WNW) 08:53:08 145.475/437.950
Tancredo 1 30 Apr 08:46:10 08:48:49 26° 153° (SSE) 08:51:29 437.200
XW-2B 30 Apr 08:46:25 08:49:51 32° 294° (WNW) 08:53:16 145.730 - 145.750
XW-2C 30 Apr 08:58:45 09:01:54 25° 296° (WNW) 09:05:03 145.795 - 145.815
LilacSat-2 30 Apr 09:02:29 09:05:32 23° 297° (WNW) 09:08:35 437.200
FO-29 30 Apr 09:03:41 09:07:46 21° 54° (NE) 09:11:40 435.910
AAUSAT CUBESAT 2 30 Apr 09:07:12 09:10:47 26° 93° (E) 09:14:19 437.432
HO-68 30 Apr 09:08:01 09:15:11 63° 103° (ESE) 09:22:19 435.675
SO-50 30 Apr 09:10:39 09:14:40 29° 335° (NNW) 09:18:40 436.795
NUDT-PHONESAT 30 Apr 09:20:26 09:23:06 19° 299° (WNW) 09:25:47 437.300
XW-2F 30 Apr 09:21:39 09:24:08 17° 301° (WNW) 09:26:38 145.980 - 146.000
UWE-3 30 Apr 09:24:54 09:28:45 34° 96° (E) 09:32:39 435.000/436.395/437.385
RS-15 30 Apr 09:26:13 09:38:32 80° 318° (NW) 09:51:00 29.354- 29.394
CUTE 1.7 + AOD 2 30 Apr 09:34:39 09:38:56 67° 288° (WNW) 09:43:12 437.475
PCSat 30 Apr 09:37:53 09:43:02 40° 36° (NE) 09:48:09 145.827
ISS 30 Apr 09:38:41 09:41:48 42° 161° (SSE) 09:44:56 437.550
CUBEBUG 2 30 Apr 09:46:40 09:50:52 83° 106° (ESE) 09:55:06 437.445
SEEDS 30 Apr 09:46:45 09:51:01 74° 287° (WNW) 09:55:16 437.485
DOVE 4 30 Apr 09:53:45 09:54:41 11° 313° (NW) 09:55:36 437.250
TIGRISAT 30 Apr 09:55:44 09:59:46 40° 67° (ENE) 10:03:46 435.000
XW-2A 30 Apr 09:58:38 10:01:35 29° 293° (WNW) 10:04:32 145.665 - 145.685
PRISM 30 Apr 10:05:06 10:09:17 80° 72° (ENE) 10:13:29 437.425
CUTE-I 30 Apr 10:08:07 10:11:37 18° 309° (NW) 10:15:06 437.470
O/OREOS (USA 219) 30 Apr 10:08:27 10:12:25 29° 106° (ESE) 10:16:24 437.305
ZACube-1 30 Apr 10:10:48 10:14:59 57° 101° (E) 10:19:13 437.345
AO-73 30 Apr 10:15:10 10:19:21 57° 101° (E) 10:23:36 145.935
UNISAT 6 30 Apr 10:17:56 10:22:14 68° 71° (ENE) 10:26:30 437.425
AO-7 30 Apr 10:19:10 10:22:14 13° 351° (N) 10:25:18 .
Tancredo 1 30 Apr 10:21:20 10:24:24 61° 172° (S) 10:27:28 437.200
Oscar 11 30 Apr 10:25:39 10:29:59 61° 101° (ESE) 10:34:18 .
OBJECT BX 30 Apr 10:29:20 10:31:45 17° 90° (E) 10:34:10 145.990 - 145.960
AIST 2D 30 Apr 10:33:39 10:35:39 15° 59° (ENE) 10:37:39 435.315
DUCHIFAT 1 30 Apr 10:35:41 10:37:03 11° 52° (NE) 10:38:27 145.980
EO-79 30 Apr 10:37:47 10:39:57 14° 54° (NE) 10:42:07 145.935-145.965
AAUSAT CUBESAT 2 30 Apr 10:42:25 10:46:23 41° 292° (WNW) 10:50:20 437.432
FO-29 30 Apr 10:46:28 10:52:24 87° 255° (WSW) 10:57:48 435.910
DELFI C3 30 Apr 10:48:54 10:52:37 34° 97° (E) 10:56:17 145.870
SO-50 30 Apr 10:53:06 10:56:26 20° 360° (N) 10:59:45 436.795
HO-68 30 Apr 10:56:08 11:02:39 39° 305° (NW) 11:09:09 435.675
UWE-3 30 Apr 11:01:27 11:05:12 32° 295° (WNW) 11:09:01 435.000/436.395/437.385
CUTE 1.7 + AOD 2 30 Apr 11:12:21 11:13:59 12° 308° (NW) 11:15:39 437.475
ISS 30 Apr 11:14:51 11:18:07 67° 180° (S) 11:21:21 437.550
POLYITAN 1 30 Apr 11:16:34 11:20:08 27° 63° (ENE) 11:23:42 437.675
BUGSAT 1 30 Apr 11:20:46 11:21:58 11° 52° (NE) 11:23:10 437.445
PCSat 30 Apr 11:21:21 11:26:41 57° 238° (WSW) 11:31:58 145.827
QB50P2 30 Apr 11:23:10 11:26:57 33° 64° (ENE) 11:30:44 145.880/145.840
SEEDS 30 Apr 11:24:04 11:25:59 13° 307° (NW) 11:27:55 437.485
CUBEBUG 2 30 Apr 11:24:28 11:26:58 16° 304° (WNW) 11:29:29 437.445
TIGRISAT 30 Apr 11:32:52 11:36:35 28° 266° (W) 11:40:18 435.000
NANOSAT C BR1 30 Apr 11:40:37 11:44:33 40° 67° (ENE) 11:48:29 145.865
RS-15 30 Apr 11:40:58 11:52:56 51° 349° (N) 12:04:51 29.354- 29.394
PRISM 30 Apr 11:42:51 11:45:07 14° 272° (W) 11:47:24 437.425
Oscar 19 30 Apr 11:45:42 11:47:50 13° 46° (NE) 11:50:00 437.125/150
O/OREOS (USA 219) 30 Apr 11:47:11 11:51:39 48° 307° (NW) 11:56:09 437.305
ZACube-1 30 Apr 11:47:45 11:50:58 22° 300° (WNW) 11:54:14 437.345
AO-73 30 Apr 11:52:05 11:55:17 21° 300° (WNW) 11:58:32 145.935
UNISAT 6 30 Apr 11:56:34 11:59:24 17° 271° (W) 12:02:15 437.425
Tancredo 1 30 Apr 11:57:06 12:00:09 54° 192° (SSW) 12:03:11 437.200
OBJECT BX 30 Apr 12:02:10 12:05:45 53° 289° (WNW) 12:09:20 145.990 - 145.960
Oscar 11 30 Apr 12:02:29 12:05:46 21° 301° (WNW) 12:09:03 .
AIST 2D 30 Apr 12:05:01 12:08:27 63° 258° (WSW) 12:11:56 435.315
AO-7 30 Apr 12:07:35 12:11:40 15° 19° (NNE) 12:15:45 .
DUCHIFAT 1 30 Apr 12:07:49 12:11:58 65° 71° (ENE) 12:16:07 145.980
EO-79 30 Apr 12:10:51 12:15:04 82° 75° (ENE) 12:19:18 145.935-145.965
Gurwin Techsat 1B 30 Apr 12:20:04 12:23:00 15° 48° (NE) 12:25:55 435.225
DELFI C3 30 Apr 12:23:49 12:27:20 30° 296° (WNW) 12:30:50 145.870
ESTCUBE 1 30 Apr 12:27:49 12:31:54 31° 95° (E) 12:35:55 437.505/2401.250
SO-50 30 Apr 12:34:15 12:38:12 29° 24° (NNE) 12:42:09 436.795
FO-29 30 Apr 12:34:40 12:38:15 17° 273° (W) 12:41:41 435.910
HO-68 30 Apr 12:45:15 12:48:31 14° 329° (NNW) 12:51:47 435.675
BEESAT 3 30 Apr 12:48:39 12:48:58 10° 110° (ESE) 12:49:17 437.485
ISS 30 Apr 12:51:19 12:54:24 39° 200° (SSW) 12:57:28 437.550
POLYITAN 1 30 Apr 12:51:49 12:55:48 41° 262° (W) 12:59:48 437.675
LO-87 30 Apr 12:51:50 12:55:26 89° 109° (ESE) 12:59:00 145.935 - 145.965
BUGSAT 1 30 Apr 12:52:30 12:56:35 66° 71° (ENE) 13:00:38 437.445
SPROUT 30 Apr 12:53:39 12:56:25 17° 89° (E) 12:59:10 437.525
QB50P2 30 Apr 12:58:54 13:02:44 34° 263° (W) 13:06:36 145.880/145.840
PCSat 30 Apr 13:07:27 13:08:56 11° 259° (WSW) 13:10:26 145.827
AO-85 30 Apr 13:09:05 13:13:10 56° 128° (SE) 13:17:05 145.980
NANOSAT C BR1 30 Apr 13:16:48 13:20:23 27° 266° (W) 13:24:00 145.865
Oscar 19 30 Apr 13:21:05 13:26:05 52° 67° (ENE) 13:31:09 437.125/150
ITAMSAT 1 30 Apr 13:22:56 13:23:11 10° 42° (NE) 13:23:27 435.822/435.867
O/OREOS (USA 219) 30 Apr 13:29:47 13:32:13 14° 330° (NNW) 13:34:40 437.305
Tancredo 1 30 Apr 13:33:16 13:35:38 20° 211° (SSW) 13:37:58 437.200
YUBILEINY 30 Apr 13:38:58 13:45:33 23° 49° (NE) 13:52:08 435.215
DUCHIFAT 1 30 Apr 13:45:18 13:48:04 17° 271° (W) 13:50:52 145.980
EO-79 30 Apr 13:49:13 13:51:25 14° 273° (W) 13:53:39 145.935-145.965
AO-7 30 Apr 13:54:59 14:02:01 32° 45° (NE) 14:09:03 .
UKube-1 30 Apr 13:55:06 13:58:19 20° 91° (E) 14:01:28 .
RS-15 30 Apr 13:56:04 14:08:16 56° 22° (NNE) 14:20:06 29.354- 29.394
Gurwin Techsat 1B 30 Apr 13:56:46 14:02:00 63° 69° (ENE) 14:07:17 435.225
VELOX 1 30 Apr 13:58:35 14:03:01 65° 103° (ESE) 14:07:24 145.980
ESTCUBE 1 30 Apr 14:04:31 14:08:48 41° 294° (WNW) 14:13:04 437.505/2401.250
SO-50 30 Apr 14:14:40 14:19:12 89° 228° (SW) 14:23:43 436.795
BEESAT 3 30 Apr 14:21:49 14:25:44 64° 130° (SE) 14:29:44 437.485
LO-87 30 Apr 14:26:58 14:28:18 12° 304° (NW) 14:29:39 145.935 - 145.965
SPROUT 30 Apr 14:28:33 14:32:48 69° 289° (WNW) 14:37:01 437.525
ISS 30 Apr 14:28:52 14:30:15 12° 219° (SW) 14:31:38 437.550
BUGSAT 1 30 Apr 14:29:43 14:32:22 16° 270° (W) 14:35:00 437.445
50 SAT 30 Apr 14:30:35 14:34:07 90° 360° (N) 14:37:36 437.505
BEESAT 2 30 Apr 14:30:54 14:34:33 35° 123° (ESE) 14:38:16 435.950
DX 1 30 Apr 14:36:16 14:40:38 62° 102° (ESE) 14:44:56 434.975-435.025
AO-85 30 Apr 14:50:07 14:53:47 31° 329° (NNW) 14:57:21 145.980
ITAMSAT 1 30 Apr 14:56:34 15:01:23 41° 63° (ENE) 15:06:14 435.822/435.867
Oscar 19 30 Apr 15:01:11 15:05:41 29° 267° (W) 15:10:13 437.125/150
UKube-1 30 Apr 15:30:26 15:34:43 59° 290° (WNW) 15:38:57 .
ITUPSAT 1 30 Apr 15:33:57 15:37:28 20° 90° (E) 15:40:59 437.325
YUBILEINY 30 Apr 15:35:27 15:44:15 71° 75° (ENE) 15:53:02 435.215
VELOX 1 30 Apr 15:35:45 15:39:05 21° 302° (WNW) 15:42:24 145.980
Gurwin Techsat 1B 30 Apr 15:38:03 15:42:24 25° 269° (W) 15:46:46 435.225
MOZHAYETS 4 30 Apr 15:43:13 15:45:36 14° 86° (E) 15:47:59
AO-7 30 Apr 15:45:41 15:54:00 89° 250° (WSW) 16:02:22 .
SO-50 30 Apr 15:56:07 15:59:04 17° 246° (WSW) 16:02:00 436.795
BEESAT 3 30 Apr 16:00:04 16:03:38 30° 330° (NNW) 16:07:14 437.485
50 SAT 30 Apr 16:05:17 16:06:28 11° 304° (NW) 16:07:39 437.505
SPROUT 30 Apr 16:06:16 16:07:57 12° 308° (NW) 16:09:38 437.525
BEESAT 2 30 Apr 16:08:26 16:12:17 43° 323° (NW) 16:16:11 435.950
RS-15 30 Apr 16:09:29 16:21:51 81° 231° (SW) 16:33:42 29.354- 29.394
DX 1 30 Apr 16:13:08 16:16:28 21° 302° (WNW) 16:19:45 434.975-435.025
DOVE 4 30 Apr 16:13:11 16:14:52 12° 48° (NE) 16:16:32 437.250
HO-68 30 Apr 16:17:36 16:17:37 10° 22° (NNE) 16:17:38 435.675
BEESAT 30 Apr 16:27:19 16:32:02 54° 101° (E) 16:36:43 436.000
AO-85 30 Apr 16:32:44 16:35:16 16° 353° (N) 16:37:48 145.980
ITAMSAT 1 30 Apr 16:36:05 16:40:55 38° 263° (W) 16:45:46 435.822/435.867
CUTE-I 30 Apr 16:38:53 16:41:31 14° 46° (NE) 16:44:09 437.470
CUBESAT XI-V 30 Apr 16:46:32 16:48:16 12° 83° (E) 16:49:59 437.345
O/OREOS (USA 219) 30 Apr 16:54:47 16:55:40 10° 22° (NNE) 16:56:33 437.305
KKS-1 30 Apr 17:00:07 17:02:27 14° 87° (E) 17:04:45 437.445
XW-2F 30 Apr 17:02:24 17:03:22 11° 54° (NE) 17:04:20 145.980 - 146.000
UKube-1 30 Apr 17:08:34 17:09:53 11° 310° (NW) 17:11:12 .
ITUPSAT 1 30 Apr 17:11:01 17:15:48 69° 290° (WNW) 17:20:33 437.325
MOZHAYETS 4 30 Apr 17:18:49 17:23:29 87° 107° (ESE) 17:28:07
YUBILEINY 30 Apr 17:32:52 17:40:27 35° 278° (W) 17:48:04 435.215
BEESAT 3 30 Apr 17:39:46 17:42:22 16° 354° (N) 17:44:59 437.485
AO-7 30 Apr 17:41:18 17:47:54 26° 271° (W) 17:54:34 .
DOVE 4 30 Apr 17:46:30 17:51:32 50° 68° (ENE) 17:56:25 437.250
BEESAT 2 30 Apr 17:48:07 17:50:59 18° 346° (NNW) 17:53:52 435.950
XW-2D 30 Apr 17:52:19 17:55:38 31° 66° (ENE) 17:59:00 145.860 - 145.880
HO-68 30 Apr 17:57:21 18:03:00 26° 47° (NE) 18:08:41 435.675
KAITUO 1B 30 Apr 17:58:12 18:01:24 28° 65° (ENE) 18:04:38 145.475/437.950
XW-2B 30 Apr 17:59:16 18:02:41 34° 67° (ENE) 18:06:09 145.730 - 145.750
BEESAT 30 Apr 18:05:34 18:09:33 27° 301° (WNW) 18:13:31 436.000
XW-2C 30 Apr 18:11:12 18:14:47 45° 70° (ENE) 18:18:25 145.795 - 145.815
AO-85 30 Apr 18:14:05 18:17:02 20° 18° (NNE) 18:19:59 145.980
LilacSat-2 30 Apr 18:15:16 18:18:57 52° 71° (ENE) 18:22:39 437.200
CUTE-I 30 Apr 18:15:20 18:20:33 57° 67° (ENE) 18:25:47 437.470
CUBESAT XI-V 30 Apr 18:21:45 18:26:30 74° 103° (ESE) 18:31:13 437.345
RS-15 30 Apr 18:22:50 18:32:35 30° 258° (WSW) 18:42:01 29.354- 29.394
NUDT-PHONESAT 30 Apr 18:30:47 18:34:23 58° 72° (ENE) 18:38:02 437.300
O/OREOS (USA 219) 30 Apr 18:32:32 18:36:37 30° 46° (NE) 18:40:41 437.305
XW-2F 30 Apr 18:33:06 18:36:49 75° 75° (ENE) 18:40:36 145.980 - 146.000
KKS-1 30 Apr 18:35:11 18:39:40 88° 282° (WNW) 18:44:06 437.445
ITUPSAT 1 30 Apr 18:50:18 18:52:50 14° 310° (NW) 18:55:20 437.325
STARS 30 Apr 18:54:07 18:58:29 69° 103° (ESE) 19:02:50 437.465
UWE-3 30 Apr 18:55:49 18:56:06 10° 51° (NE) 18:56:24 435.000/436.395/437.385
MOZHAYETS 4 30 Apr 18:57:02 19:00:03 18° 305° (NW) 19:03:05
CUTE 1.7 + AOD 2 30 Apr 18:57:59 19:01:33 27° 63° (ENE) 19:05:10 437.475
XW-2A 30 Apr 19:03:14 19:05:58 24° 65° (ENE) 19:08:43 145.665 - 145.685
SEEDS 30 Apr 19:09:23 19:12:48 24° 61° (ENE) 19:16:14 437.485
NO-84 30 Apr 19:11:22 19:14:06 20° 140° (SE) 19:16:40 435.350 FM
CUBEBUG 2 30 Apr 19:15:21 19:18:33 21° 60° (ENE) 19:21:43 437.445
BEESAT 3 30 Apr 19:18:18 19:21:19 20° 18° (NNE) 19:24:20 437.485
DOVE 4 30 Apr 19:24:47 19:29:24 31° 267° (W) 19:33:54 437.250
XW-2D 30 Apr 19:26:32 19:29:51 29° 265° (W) 19:33:11 145.860 - 145.880
BEESAT 2 30 Apr 19:27:22 19:30:08 17° 10° (N) 19:32:54 435.950
KAITUO 1B 30 Apr 19:32:03 19:35:23 31° 264° (W) 19:38:45 145.475/437.950
XW-2B 30 Apr 19:33:47 19:36:57 26° 266° (W) 19:40:11 145.730 - 145.750
ZACube-1 30 Apr 19:38:29 19:40:51 15° 56° (NE) 19:43:13 437.345
AO-73 30 Apr 19:42:35 19:44:56 15° 56° (NE) 19:47:17 145.935
HO-68 30 Apr 19:42:43 19:49:53 84° 69° (ENE) 19:57:07 435.675
XW-2C 30 Apr 19:46:26 19:49:14 20° 269° (W) 19:52:03 145.795 - 145.815
LilacSat-2 30 Apr 19:50:58 19:53:33 18° 270° (W) 19:56:10 437.200
Oscar 11 30 Apr 19:52:05 19:54:49 17° 56° (NE) 19:57:33 .
AO-85 30 Apr 19:54:15 19:58:09 58° 41° (NE) 20:02:09 145.980
CUTE-I 30 Apr 19:56:24 20:00:56 28° 267° (W) 20:05:31 437.470
CUBESAT XI-V 30 Apr 19:59:55 20:03:25 21° 303° (WNW) 20:06:52 437.345
AAUSAT CUBESAT 2 30 Apr 20:02:51 20:06:43 38° 66° (ENE) 20:10:38 437.432
NUDT-PHONESAT 30 Apr 20:06:28 20:08:41 15° 271° (W) 20:10:55 437.300
XW-2F 30 Apr 20:09:48 20:11:29 13° 273° (W) 20:13:10 145.980 - 146.000
O/OREOS (USA 219) 30 Apr 20:11:49 20:16:17 50° 247° (WSW) 20:20:41 437.305
KKS-1 30 Apr 20:12:55 20:15:37 16° 306° (NW) 20:18:18 437.445
UWE-3 30 Apr 20:27:37 20:31:45 58° 70° (ENE) 20:35:49 435.000/436.395/437.385
STARS 30 Apr 20:31:16 20:34:25 20° 303° (WNW) 20:37:34 437.465
CUTE 1.7 + AOD 2 30 Apr 20:33:11 20:37:14 43° 262° (W) 20:41:20 437.475
XW-2A 30 Apr 20:35:39 20:38:39 30° 264° (W) 20:41:40 145.665 - 145.685
SEEDS 30 Apr 20:44:10 20:48:16 49° 261° (W) 20:52:24 437.485
STRAND 1 30 Apr 20:47:24 20:52:23 49° 100° (E) 20:57:20 437.568
NO-84 30 Apr 20:47:43 20:51:17 71° 157° (SSE) 20:54:33 435.350 FM
CUBEBUG 2 30 Apr 20:50:41 20:54:52 56° 259° (W) 20:59:01 437.445
BEESAT 3 30 Apr 20:55:44 20:59:43 54° 40° (NE) 21:03:40 437.485
BEESAT 2 30 Apr 21:05:09 21:08:57 36° 33° (NNE) 21:12:43 435.950
ZACube-1 30 Apr 21:12:25 21:16:34 87° 253° (WSW) 21:20:45 437.345
OBJECT BX 30 Apr 21:13:03 21:15:43 20° 61° (ENE) 21:18:24 145.990 - 145.960
AO-73 30 Apr 21:16:28 21:20:37 87° 256° (WSW) 21:24:47 145.935
Oscar 11 30 Apr 21:26:06 21:30:25 83° 257° (WSW) 21:34:46 .
HO-68 30 Apr 21:32:44 21:38:28 25° 271° (W) 21:44:16 435.675
AO-85 30 Apr 21:35:03 21:38:16 24° 241° (WSW) 21:41:34 145.980
M-CUBED/EXP-1 PRIME 30 Apr 21:35:09 21:39:22 69° 108° (ESE) 21:43:14 437.505
AAUSAT CUBESAT 2 30 Apr 21:38:39 21:42:17 28° 266° (W) 21:45:57 437.432
DELFI C3 30 Apr 21:39:51 21:43:41 46° 69° (ENE) 21:47:34 145.870
ESTCUBE 1 30 Apr 21:59:58 22:01:28 12° 49° (NE) 22:02:59 437.505/2401.250
LO-87 30 Apr 22:02:35 22:04:08 12° 57° (ENE) 22:05:41 145.935 - 145.965
UWE-3 30 Apr 22:05:35 22:08:34 19° 270° (W) 22:11:33 435.000/436.395/437.385
NO-84 30 Apr 22:25:32 22:28:54 61° 357° (N) 22:31:59 435.350 FM
STRAND 1 30 Apr 22:26:54 22:31:24 32° 300° (WNW) 22:35:52 437.568
BEESAT 3 30 Apr 22:33:40 22:37:07 27° 240° (WSW) 22:40:30 437.485
BEESAT 2 30 Apr 22:42:55 22:46:51 48° 234° (SW) 22:50:45 435.950
OBJECT BX 30 Apr 22:45:37 22:49:08 47° 260° (W) 22:52:41 145.990 - 145.960
ZACube-1 30 Apr 22:52:05 22:53:33 12° 275° (W) 22:55:02 437.345
AO-73 30 Apr 22:56:06 22:57:33 12° 275° (W) 22:59:00 145.935
Oscar 11 30 Apr 23:05:39 23:07:17 12° 275° (W) 23:08:55 .
M-CUBED/EXP-1 PRIME 30 Apr 23:10:16 23:13:21 20° 310° (NW) 23:16:16 437.505
PRISM 30 Apr 23:15:25 23:19:32 53° 101° (E) 23:23:34 437.425
DELFI C3 30 Apr 23:15:33 23:18:42 22° 268° (W) 23:21:53 145.870
TIGRISAT 30 Apr 23:17:02 23:21:01 37° 97° (E) 23:25:03 435.000
VELOX 1 30 Apr 23:26:39 23:29:56 21° 57° (ENE) 23:33:13 145.980
ESTCUBE 1 30 Apr 23:32:56 23:37:22 57° 69° (ENE) 23:41:51 437.505/2401.250
FO-29 30 Apr 23:33:08 23:38:08 44° 99° (E) 23:43:25 435.910
LO-87 30 Apr 23:33:24 23:37:02 87° 256° (WSW) 23:40:40 145.935 - 145.965
50 SAT 30 Apr 23:38:33 23:39:53 12° 56° (NE) 23:41:12 437.505
UNISAT 6 30 Apr 23:39:35 23:43:52 64° 102° (ESE) 23:48:12 437.425
SPROUT 30 Apr 23:52:26 23:56:05 28° 63° (ENE) 23:59:45 437.525
DX 1 01 May 00:02:57 00:06:06 20° 57° (ENE) 00:09:15 434.975-435.025
NO-84 01 May 00:03:20 00:06:32 87° 201° (SSW) 00:09:31 435.350 FM
